Wind_Speed
16 17 16 16 16 15 14 16 16 15 15 18 17 16 14 16 17 15 15 17 17 16 16 15 14 13 12 11 11 11 11 11 11 11 11 11 11 11 10 10 10 11 11 11
16 16 14 15 16 17 17 17 16 15 15 18 19 18 16 15 17 16 15 17 18 18 16 16 15 15 14 12 12 12 11 10 11 11 12 12 11 11 12 12 12 12 12 12
17 14 15 18 18 19 18 17 17 17 18 19 19 19 17 18 19 19 18 17 18 19 18 17 16 15 14 14 14 14 13 13 12 12 13 13 12 13 13 13 13 12 12 12
17 16 17 18 19 19 19 18 17 18 18 19 19 19 19 19 20 20 20 18 19 20 20 18 17 17 16 16 15 15 15 14 14 14 14 14 14 14 14 13 13 13 14 14
17 17 18 20 19 19 20 18 19 20 20 20 19 19 20 20 21 21 20 18 20 21 22 20 19 18 18 17 17 17 17 17 16 16 15 15 15 15 15 14 14 15 15 15
17 18 20 20 21 20 20 19 20 19 20 22 20 20 21 22 23 22 22 20 19 21 22 21 20 20 20 19 18 18 18 18 18 17 17 16 16 16 16 16 16 16 16 16
17 18 19 20 21 19 18 19 18 18 21 21 19 22 24 24 24 23 23 22 20 21 22 22 22 21 21 20 19 19 19 19 19 19 19 18 18 18 18 17 17 17 17 17
17 19 19 21 21 20 19 19 19 18 19 19 19 21 23 25 24 24 23 23 22 22 22 22 22 20 21 21 21 21 20 20 20 20 20 20 20 20 19 19 19 19 18 18
18 19 19 20 22 21 20 19 19 20 20 20 19 20 22 23 25 26 26 25 24 23 22 23 23 21 21 21 21 21 20 21 21 21 21 21 21 21 21 21 21 21 19 19
20 20 18 19 22 21 20 19 19 21 22 22 20 20 23 22 23 24 24 24 25 23 23 24 23 22 21 20 20 21 21 21 22 22 22 22 22 22 22 22 23 22 21 21
21 22 20 20 21 20 20 21 21 21 23 23 23 22 21 23 24 25 26 26 26 25 25 24 24 23 21 21 21 22 22 23 23 23 23 23 23 23 23 24 23 23 22 22
22 23 23 22 21 20 22 23 24 24 24 24 24 24 23 24 25 24 25 26 27 26 26 26 25 25 24 23 23 23 23 24 24 24 24 24 24 24 24 24 24 24 24 24
23 24 24 22 20 19 21 23 23 24 24 24 24 24 24 25 25 26 26 26 27 28 27 28 27 26 26 26 25 24 24 25 25 25 25 25 25 25 25 25 25 25 25 25
24 25 25 23 21 21 22 23 22 24 26 26 25 25 27 28 28 28 28 27 28 29 29 29 29 29 28 28 26 25 26 26 26 26 26 26 26 26 27 27 27 27 26 26
25 25 25 25 23 24 24 23 23 25 25 27 26 26 28 29 30 30 30 28 28 29 29 29 30 29 29 29 28 28 27 27 27 27 27 27 27 28 28 28 28 27 27 27
26 26 26 26 25 25 24 23 23 24 26 27 26 26 28 30 30 29 28 28 28 28 29 30 30 31 29 28 27 27 28 28 27 28 28 29 29 28 28 28 28 28 28 27
26 27 27 26 24 25 25 24 24 23 24 26 27 29 30 30 29 28 28 28 29 29 30 30 30 31 31 30 27 28 29 29 29 29 29 29 29 29 28 28 29 28 28 28
25 26 27 25 24 25 24 26 25 24 25 27 27 29 30 30 30 30 29 30 30 31 30 30 30 30 30 29 29 28 28 29 29 29 29 30 30 30 30 29 29 28 28 28
25 25 24 24 24 24 24 24 24 24 26 27 28 30 29 30 31 30 30 30 30 30 29 30 30 29 29 29 29 28 28 28 28 28 28 29 30 30 30 30 29 29 29 28
23 24 25 25 25 26 25 24 23 24 27 28 29 30 30 29 30 30 30 31 31 30 30 30 29 29 28 28 29 28 29 29 28 28 28 29 30 30 30 30 30 30 29 29
23 24 24 25 27 28 26 24 23 25 26 27 28 28 28 28 29 30 29 30 30 30 30 30 29 28 28 28 28 28 28 28 27 28 28 29 30 29 29 30 30 30 30 29
25 25 25 26 27 28 27 26 25 25 26 26 27 26 26 27 27 28 28 29 29 29 29 29 29 28 27 27 27 28 27 27 27 27 28 28 28 28 29 29 30 30 30 30
25 26 26 26 26 27 26 26 26 27 27 27 26 26 25 26 26 27 27 27 27 27 27 27 27 27 26 26 26 26 26 27 27 27 27 28 28 27 27 28 29 29 28 28
23 26 26 26 27 27 25 25 27 27 27 27 27 25 26 27 27 27 26 26 26 26 27 26 26 25 25 25 25 25 24 25 26 26 26 27 27 26 26 26 27 28 27 27
24 26 27 26 26 26 25 25 25 25 26 26 25 24 25 26 26 26 25 26 26 26 26 26 25 25 26 26 26 25 24 25 25 25 26 26 26 26 26 26 26 27 27 27
22 24 25 24 24 25 25 24 24 25 25 26 26 25 25 24 25 25 25 25 26 26 27 26 26 26 25 26 26 25 25 25 25 25 25 25 25 25 25 25 26 26 27 27
Wind_Direction
243 245 244 245 245 242 242 242 243 251 257 263 265 265 263 269 272 270 274 278 277 271 271 273 275 276 276 279 283 286 288 292 294 295 297 300 301 301 300 298 299 299 300 303
246 246 246 246 245 242 238 241 244 250 253 260 263 263 262 263 265 268 270 273 270 271 268 271 275 277 274 275 279 282 286 290 293 294 295 296 297 297 297 299 299 297 296 298
246 246 245 243 242 244 242 242 243 246 250 257 264 268 266 260 261 269 268 268 269 271 271 270 272 273 273 275 277 276 277 283 289 293 293 291 293 295 296 298 301 295 294 294
244 243 244 245 245 243 245 247 248 248 251 256 261 266 266 263 263 270 271 268 265 265 268 267 266 270 272 273 274 273 273 277 284 288 290 290 290 293 295 297 299 296 295 296
241 242 243 244 245 244 243 242 243 246 250 253 255 261 263 263 260 266 269 264 262 263 266 266 264 266 268 269 272 274 274 275 280 285 288 288 289 289 292 295 298 296 293 291
240 242 243 245 248 243 242 245 248 251 252 254 256 256 258 258 256 255 262 266 264 264 266 266 265 264 265 265 268 272 272 274 278 281 284 286 287 287 289 293 294 296 292 289
245 246 249 248 249 248 246 243 247 250 251 254 256 256 256 257 255 253 258 265 264 267 268 266 266 263 263 265 267 269 270 272 274 277 280 282 284 285 286 290 293 295 294 289
246 248 247 250 247 242 244 243 244 247 255 259 260 253 253 256 260 259 259 262 263 265 266 267 266 266 266 266 268 269 268 269 272 275 278 280 282 284 285 286 289 291 291 289
238 243 245 253 255 248 243 243 243 248 253 259 258 256 251 255 260 264 263 263 266 260 262 265 265 266 267 266 266 268 267 268 270 272 276 279 281 282 283 284 285 286 287 286
240 240 238 247 254 253 249 246 240 238 246 253 258 261 257 255 259 264 265 266 266 264 264 266 264 264 266 269 268 267 266 267 268 269 272 276 278 279 280 281 282 282 285 286
242 244 239 240 247 250 249 246 242 242 241 248 256 258 259 259 259 260 263 266 261 259 262 264 263 266 265 267 268 268 268 267 268 269 271 273 276 277 278 279 280 280 282 284
250 250 248 244 246 250 247 247 240 243 243 244 253 260 257 256 258 260 262 262 260 259 262 263 263 265 266 267 267 266 267 267 268 270 272 273 276 277 278 280 279 279 281 282
253 252 252 249 246 245 247 247 245 246 249 248 249 258 260 262 264 262 263 263 260 260 259 261 263 262 262 263 262 264 265 267 268 270 272 274 275 276 277 279 278 278 279 279
254 252 249 247 245 245 247 250 249 248 249 250 248 255 259 262 264 261 261 261 261 260 259 260 263 263 263 265 262 265 265 266 268 269 270 272 276 276 276 277 277 277 277 278
256 255 251 247 245 245 243 245 246 248 248 248 250 253 256 258 261 262 260 263 262 260 260 261 264 266 265 266 266 266 267 267 267 268 270 272 274 275 276 277 276 275 275 277
259 256 253 251 247 247 247 245 246 249 251 249 250 251 255 258 262 261 261 262 261 261 261 262 264 265 266 266 266 265 266 268 269 269 269 271 273 273 275 276 275 274 274 275
258 258 257 253 250 249 247 248 248 247 249 250 249 250 251 254 259 261 261 263 262 261 263 262 262 263 265 266 266 266 268 269 272 272 271 271 273 274 274 275 274 273 273 275
259 259 259 256 252 248 248 248 250 252 250 249 250 253 255 258 259 261 260 261 261 261 262 264 262 261 264 265 266 268 269 272 272 272 272 272 272 273 273 273 273 274 274 275
260 259 257 255 252 252 248 249 252 253 254 251 251 252 255 258 261 261 259 262 262 262 262 263 262 263 264 265 265 267 269 270 273 273 273 273 272 272 272 273 273 273 274 275
261 260 257 256 254 250 248 250 253 255 256 255 254 254 255 256 260 260 259 260 262 262 262 263 263 262 264 264 265 266 268 268 270 271 272 273 273 272 272 271 272 273 273 273
257 258 257 255 255 252 252 253 254 253 256 255 257 256 257 257 259 261 263 262 260 261 261 262 262 263 264 264 265 266 267 268 270 272 272 272 273 273 272 271 271 271 270 270
256 257 257 256 254 255 256 251 251 256 257 255 254 255 258 260 260 262 263 264 262 260 260 261 262 263 264 264 265 265 267 269 270 272 274 275 274 272 272 272 271 271 270 269
258 256 256 255 255 258 260 255 256 257 260 260 257 260 261 262 263 261 261 261 261 261 262 261 262 262 263 264 264 265 268 270 270 271 273 275 274 272 271 271 270 270 270 270
255 254 255 255 255 257 258 257 256 259 261 264 261 261 263 265 264 263 262 261 262 261 262 261 262 262 262 262 263 265 269 270 269 271 274 276 275 273 272 272 272 271 269 268
255 253 254 256 254 255 263 261 257 259 259 261 263 262 263 266 266 264 265 264 262 262 262 260 261 262 261 262 264 264 268 269 270 273 275 277 276 275 274 273 273 272 271 270
257 257 258 256 252 255 261 262 258 260 262 262 263 263 264 266 266 264 264 265 263 261 260 261 260 261 262 262 262 264 266 269 271 273 275 276 276 276 277 276 274 273 272 272
Height
5858 5861 5863 5866 5868 5871 5874 5876 5878 5880 5880 5880 5879 5879 5879 5879 5878 5877 5877 5877 5876 5875 5876 5875 5875 5875 5876 5876 5875 5875 5875 5875 5875 5875 5874 5874 5873 5873 5873 5872 5872 5871 5871 5870
5855 5857 5861 5863 5865 5867 5869 5872 5874 5876 5877 5877 5876 5876 5876 5876 5875 5875 5875 5874 5874 5872 5872 5872 5872 5873 5873 5873 5873 5873 5873 5873 5873 5873 5873 5872 5872 5872 5871 5871 5870 5870 5869 5869
5852 5856 5857 5859 5860 5863 5865 5867 5870 5872 5873 5872 5872 5872 5872 5872 5872 5872 5871 5871 5871 5869 5869 5869 5869 5870 5870 5870 5871 5871 5871 5871 5871 5871 5871 5870 5870 5870 5870 5869 5868 5868 5867 5867
5849 5851 5853 5854 5856 5858 5860 5863 5865 5866 5867 5868 5869 5869 5869 5868 5867 5868 5868 5867 5867 5866 5865 5866 5866 5867 5867 5868 5868 5868 5868 5869 5869 5869 5868 5868 5868 5868 5868 5867 5866 5866 5865 5865
5845 5847 5849 5850 5852 5854 5856 5859 5860 5861 5862 5863 5864 5865 5865 5864 5863 5863 5863 5863 5862 5862 5861 5862 5863 5863 5864 5864 5865 5865 5866 5866 5866 5866 5866 5866 5866 5865 5865 5864 5864 5863 5863 5862
5840 5843 5844 5846 5847 5848 5850 5853 5854 5855 5857 5857 5859 5860 5860 5859 5858 5857 5858 5858 5858 5858 5858 5858 5859 5860 5860 5861 5861 5862 5862 5863 5863 5863 5863 5863 5863 5862 5862 5862 5861 5861 5860 5860
5836 5838 5839 5841 5842 5843 5845 5848 5850 5851 5851 5852 5854 5854 5854 5853 5852 5852 5852 5854 5854 5854 5854 5855 5855 5855 5856 5857 5857 5858 5859 5859 5860 5860 5860 5860 5860 5859 5859 5859 5858 5858 5857 5856
5833 5835 5836 5835 5836 5839 5840 5843 5845 5847 5848 5848 5849 5849 5848 5847 5848 5847 5848 5849 5850 5851 5851 5851 5851 5851 5852 5852 5853 5854 5855 5855 5856 5856 5856 5856 5856 5855 5855 5855 5854 5854 5854 5853
5828 5830 5832 5831 5831 5833 5835 5837 5841 5843 5842 5843 5844 5843 5842 5842 5843 5843 5843 5844 5845 5845 5845 5846 5845 5846 5847 5848 5849 5849 5850 5851 5852 5852 5852 5852 5852 5851 5851 5851 5850 5850 5849 5849
5821 5823 5825 5827 5827 5828 5830 5832 5835 5836 5837 5838 5839 5839 5836 5835 5837 5838 5838 5839 5839 5839 5840 5841 5841 5841 5843 5843 5843 5844 5845 5846 5846 5847 5847 5847 5847 5847 5847 5846 5846 5846 5846 5845
5815 5817 5819 5821 5821 5823 5825 5827 5828 5829 5831 5832 5833 5835 5832 5831 5831 5832 5833 5834 5834 5834 5835 5836 5836 5836 5837 5838 5839 5839 5840 5841 5841 5841 5842 5842 5842 5842 5842 5841 5841 5841 5841 5841
5808 5810 5812 5814 5816 5817 5819 5820 5822 5823 5824 5825 5826 5829 5825 5825 5825 5826 5827 5827 5828 5828 5829 5830 5831 5831 5831 5832 5834 5834 5834 5835 5836 5836 5836 5837 5837 5837 5836 5836 5836 5836 5835 5835
5802 5804 5805 5808 5811 5811 5811 5813 5814 5816 5817 5818 5820 5823 5819 5818 5818 5819 5820 5821 5822 5823 5823 5824 5824 5825 5825 5825 5826 5828 5828 5829 5829 5830 5830 5831 5831 5831 5831 5830 5830 5830 5830 5829
5795 5796 5799 5801 5803 5804 5804 5806 5808 5809 5810 5811 5814 5814 5813 5811 5812 5812 5813 5814 5815 5816 5817 5817 5817 5817 5818 5818 5818 5820 5822 5822 5823 5823 5824 5825 5825 5825 5825 5824 5824 5824 5823 5823
5788 5789 5791 5793 5795 5796 5796 5798 5801 5803 5803 5805 5806 5807 5806 5804 5804 5805 5806 5807 5808 5809 5810 5811 5810 5810 5810 5811 5812 5812 5814 5815 5816 5817 5817 5818 5818 5818 5818 5817 5817 5817 5817 5816
5780 5782 5784 5785 5787 5788 5789 5791 5793 5795 5796 5797 5799 5800 5799 5797 5796 5797 5799 5800 5802 5802 5803 5803 5804 5803 5803 5803 5804 5805 5807 5808 5809 5809 5810 5810 5811 5811 5810 5810 5810 5810 5810 5809
5773 5775 5776 5778 5780 5781 5783 5785 5785 5786 5788 5790 5791 5792 5791 5791 5791 5791 5792 5794 5795 5795 5795 5796 5796 5796 5796 5796 5797 5798 5798 5800 5801 5801 5802 5802 5803 5803 5803 5802 5802 5802 5802 5802
5767 5768 5769 5771 5773 5773 5778 5778 5778 5779 5781 5781 5782 5783 5783 5783 5783 5784 5785 5786 5787 5788 5788 5789 5789 5789 5789 5790 5790 5790 5792 5792 5793 5793 5793 5794 5794 5795 5795 5795 5794 5794 5794 5794
5760 5761 5762 5764 5765 5766 5770 5770 5772 5773 5773 5774 5775 5775 5776 5776 5777 5777 5777 5778 5779 5780 5781 5781 5781 5782 5782 5783 5783 5784 5785 5785 5785 5784 5785 5785 5786 5787 5787 5787 5786 5787 5787 5787
5753 5754 5755 5757 5758 5759 5762 5763 5764 5767 5765 5766 5767 5767 5768 5768 5769 5770 5770 5771 5771 5772 5773 5774 5774 5774 5775 5775 5776 5777 5778 5778 5778 5777 5778 5777 5778 5778 5778 5778 5778 5778 5779 5779
5747 5748 5749 5750 5750 5752 5754 5755 5757 5759 5759 5758 5758 5759 5758 5759 5762 5762 5762 5763 5763 5764 5765 5766 5766 5767 5768 5768 5769 5770 5770 5771 5770 5770 5770 5770 5770 5770 5770 5770 5771 5771 5771 5771
5741 5742 5743 5744 5745 5747 5746 5747 5750 5750 5750 5749 5749 5750 5750 5752 5753 5754 5754 5755 5756 5756 5757 5758 5759 5760 5760 5761 5762 5762 5763 5763 5763 5763 5763 5763 5762 5762 5762 5763 5763 5763 5763 5763
5735 5736 5737 5738 5740 5739 5739 5740 5741 5741 5742 5742 5742 5743 5744 5745 5746 5746 5747 5748 5749 5749 5750 5750 5751 5752 5753 5754 5755 5755 5756 5756 5756 5756 5755 5755 5755 5754 5754 5755 5755 5755 5755 5755
5728 5729 5730 5731 5731 5731 5731 5731 5733 5734 5735 5735 5734 5735 5736 5737 5738 5739 5739 5740 5741 5742 5742 5743 5744 5745 5746 5747 5748 5748 5749 5749 5749 5748 5748 5748 5747 5747 5747 5747 5747 5747 5747 5747
5721 5722 5723 5723 5724 5725 5725 5725 5725 5726 5727 5728 5727 5728 5729 5729 5730 5731 5732 5732 5733 5734 5735 5735 5736 5737 5738 5739 5740 5741 5742 5741 5741 5741 5741 5741 5740 5740 5740 5740 5740 5740 5739 5739
5716 5716 5716 5716 5717 5717 5718 5719 5719 5720 5721 5720 5720 5722 5722 5722 5723 5724 5724 5725 5725 5726 5727 5728 5729 5730 5731 5732 5733 5734 5734 5734 5734 5734 5734 5733 5733 5733 5733 5733 5732 5732 5732 5732